Location: *
(44.1392°N, 4.8079°E)
Time: 06:32:24
(UTC+00:00)

X-37B - Pass Details

Date: 21 June 2021
Orbit: 383 x 392 km, 45.0° (Epoch: 01 July)

Event Time Altitude Azimuth Distance (km) Brightness Sun altitude
Exits shadow 02:37:48 - 281° (W) 1,906 3.8 -11.4°
Reaches altitude 10° 02:39:03 10° 276° (W) 1,406 3.1 -11.3°
Maximum altitude 02:42:04 42° 204° (SSW) 562 0.9 -10.9°
Drops below altitude 10° 02:45:04 10° 131° (SE) 1,404 3.4 -10.6°
Sets 02:47:11 0° 124° (SE) 2,257 4.6 -10.3°
